Weather reports worldwide

Advertisment
Milano/Malpensa, Italy (16066): temperature & dewpoint: 10.12.2019 13:00:00 - 16.12.2019 13:00:00 (CET)Milano/Malpensa, Italy (16066): wind speed: 10.12.2019 13:00:00 - 16.12.2019 13:00:00 (CET)Milano/Malpensa, Italy (16066): wind direction: 10.12.2019 13:00:00 - 16.12.2019 13:00:00 (CET)Milano/Malpensa, Italy (16066): reduced air pressure: 10.12.2019 13:00:00 - 16.12.2019 13:00:00 (CET)Milano/Malpensa, Italy (16066): visibility: 10.12.2019 13:00:00 - 16.12.2019 13:00:00 (CET)Milano/Malpensa, Italy (16066): precipitation: 10.12.2019 13:00:00 - 16.12.2019 13:00:00 (CET)
Date & Time tt [°C] td [°C] ff [km/h] ff [kn] dd ppp [hPa] vv [km] rr [mm]
16.12.2019 13:00:00 7,0 7,0 4 2 - - 1,5 -
16.12.2019 12:00:00 7,0 7,0 2 1 - - 2,0 -
16.12.2019 11:00:00 7,0 7,0 2 1 - - 3,0 -
16.12.2019 10:00:00 7,2 7,2 2 1 - 1021,5 3,0 0,0
16.12.2019 09:00:00 7,0 7,0 2 1 - - 3,0 -
16.12.2019 08:00:00 7,0 7,0 4 2 - - 4,0 -
16.12.2019 07:00:00 6,4 6,4 2 1 - 1020,1 4,0 -
16.12.2019 06:00:00 6,0 6,0 4 2 NNW - 5 -
16.12.2019 05:00:00 6,0 6,0 8 4 NNE - 5 -
16.12.2019 04:00:00 6,1 6,1 4 2 - 1019,7 6 0,0
16.12.2019 03:00:00 6,0 6,0 2 1 - - 4,0 -
16.12.2019 02:00:00 6,0 6,0 4 2 N - 6 -
16.12.2019 01:00:00 5,7 5,7 2 1 - 1019,5 4,0 -
16.12.2019 00:00:00 6,0 6,0 5 3 NW - 4,0 -
15.12.2019 23:00:00 6,0 6,0 2 1 - - 4,0 -
15.12.2019 22:00:00 5,5 5,5 2 1 - 1019,0 5 0,0
15.12.2019 21:00:00 6,0 5,0 5 3 WSW - 6 -
15.12.2019 20:00:00 6,0 5,0 5 3 WSW - 8 -
15.12.2019 19:00:00 5,8 5,4 9 5 SSW 1017,8 10 -
15.12.2019 18:00:00 7,0 6,0 5 3 SSW - 9 -
15.12.2019 17:00:00 7,0 6,0 8 4 SSW - 9 -
15.12.2019 16:00:00 8,0 5,1 11 6 SSW 1016,4 10 0,0
15.12.2019 15:00:00 9,0 4,0 5 3 WSW - 10 -
15.12.2019 14:00:00 9,0 4,0 4 2 - - 10 -
15.12.2019 13:00:00 8,9 4,2 8 4 N 1016,0 10 -
15.12.2019 12:00:00 7,0 4,0 11 6 NNW - 10 -
15.12.2019 11:00:00 7,0 4,0 11 6 N - 10 -
15.12.2019 10:00:00 6,1 4,3 11 6 N 1015,7 10 0,0
15.12.2019 09:00:00 6,0 4,0 13 7 N - 10 -
15.12.2019 08:00:00 5,0 4,0 11 6 N - 10 -
15.12.2019 07:00:00 5,3 3,7 11 6 N 1013,6 10 -
15.12.2019 06:00:00 5,0 4,0 5 3 NNE - 8 -
15.12.2019 05:00:00 4,0 3,0 9 5 NNE - 8 -
15.12.2019 04:00:00 2,4 1,7 11 6 NNE 1011,9 10 0,0
15.12.2019 03:00:00 3,0 1,0 8 4 NE - 10 -
15.12.2019 02:00:00 3,0 1,0 9 5 ENE - 10 -
15.12.2019 01:00:00 3,8 1,4 11 6 ENE 1010,4 10 -
15.12.2019 00:00:00 0,0 0,0 11 6 ENE - 10 -
14.12.2019 23:00:00 1,0 0,0 9 5 ESE - 10 -
14.12.2019 22:00:00 1,4 -0,3 8 4 NE 1008,2 10 0,0
14.12.2019 21:00:00 1,0 0,0 5 3 N - 10 -
14.12.2019 20:00:00 3,0 0,0 4 2 - - 10 -
14.12.2019 19:00:00 2,6 1,7 15 8 N 1006,1 10 -
14.12.2019 18:00:00 4,0 2,0 5 3 NNE - 10 -
14.12.2019 17:00:00 8,0 3,0 4 2 - - 10 -
14.12.2019 16:00:00 10,0 3,8 9 5 SW 1004,3 10 0,0
14.12.2019 15:00:00 12,0 2,0 13 7 WSW - 10 -
14.12.2019 14:00:00 12,0 2,0 9 5 SW - 10 -
14.12.2019 13:00:00 11,8 0,7 8 4 WNW 1002,2 10 -
14.12.2019 12:00:00 10,0 1,0 11 6 N - 10 -
14.12.2019 11:00:00 8,0 2,0 15 8 N - 10 -
14.12.2019 10:00:00 4,2 2,5 11 6 NNE 1001,3 10 0,0
14.12.2019 09:00:00 -1,0 -1,0 8 4 N - 10 -
14.12.2019 08:00:00 -2,0 -2,0 4 2 - - 10 -
14.12.2019 07:00:00 -2,5 -2,5 5 3 E 998,2 10 -
14.12.2019 06:00:00 -2,0 -3,0 4 2 - - 10 -
14.12.2019 05:00:00 -1,0 -2,0 5 3 ENE - 10 -
14.12.2019 04:00:00 1,1 -0,6 11 6 NNE 996,4 10 0,0
14.12.2019 03:00:00 - - - - - - - -
14.12.2019 02:00:00 1,0 -1,0 13 7 N - 10 -
14.12.2019 01:00:00 1,2 -0,1 5 3 W 994,5 10 -
14.12.2019 00:00:00 0,0 0,0 8 4 - - 10 -
13.12.2019 23:00:00 2,0 1,0 9 5 W - 10 -
13.12.2019 22:00:00 0,4 0,4 8 4 WSW 992,7 10 0,0
13.12.2019 21:00:00 1,0 1,0 9 5 W - 10 -
13.12.2019 20:00:00 2,0 2,0 16 9 W - 10 -
13.12.2019 19:00:00 1,5 1,5 16 9 W 991,0 10 -
13.12.2019 18:00:00 2,0 2,0 15 8 W - 10 -
13.12.2019 17:00:00 2,0 2,0 8 4 W - 10 -
13.12.2019 16:00:00 3,1 2,9 16 9 W 988,7 10 0,0
13.12.2019 15:00:00 4,0 3,0 11 6 WNW - 10 -
13.12.2019 14:00:00 4,0 3,0 8 4 N - 10 -
13.12.2019 13:00:00 2,5 2,5 9 5 N 989,4 10 -
13.12.2019 12:00:00 1,0 1,0 8 4 NE - 3,0 -
13.12.2019 11:00:00 1,0 1,0 8 4 N - 0,8 -
13.12.2019 10:00:00 0,5 0,5 9 5 NNE 991,5 1,0 0,0
13.12.2019 09:00:00 1,0 1,0 5 3 N - 1,5 -
13.12.2019 08:00:00 1,0 1,0 4 2 - - 1,5 -
13.12.2019 07:00:00 0,5 0,5 2 1 - 994,2 2,0 -
13.12.2019 06:00:00 1,0 1,0 5 3 WSW - 3,0 -
13.12.2019 05:00:00 1,0 1,0 5 3 N - 2,0 -
13.12.2019 04:00:00 0,5 0,5 5 3 N 996,9 1,0 0,0
13.12.2019 03:00:00 1,0 1,0 2 1 - - 4,0 -
13.12.2019 02:00:00 1,0 1,0 4 2 - - 7 -
13.12.2019 01:00:00 2,1 -0,1 4 2 N 1000,0 7 -
13.12.2019 00:00:00 0,0 0,0 9 5 NNE - 8 -
12.12.2019 23:00:00 3,0 0,0 5 3 NNW - 10 -
12.12.2019 22:00:00 3,3 0,3 5 3 NW 1002,7 10 0,0
12.12.2019 21:00:00 3,0 0,0 2 1 - - 10 -
12.12.2019 20:00:00 3,0 1,0 5 3 NNE - 10 -
12.12.2019 19:00:00 3,3 1,5 5 3 NNE 1004,2 10 -
12.12.2019 18:00:00 4,0 2,0 2 1 - - 10 -
12.12.2019 17:00:00 4,0 2,0 2 1 - - 10 -
12.12.2019 16:00:00 4,0 1,6 4 2 - 1005,1 10 0,0
12.12.2019 15:00:00 4,0 2,0 5 3 WSW - 10 -
12.12.2019 14:00:00 4,0 2,0 8 4 SW - 10 -
12.12.2019 13:00:00 4,0 2,3 8 4 S 1006,3 10 -
12.12.2019 12:00:00 4,0 3,0 4 2 - - 8 -
12.12.2019 11:00:00 3,0 3,0 5 3 ENE - 5 -
12.12.2019 10:00:00 2,7 2,7 2 1 - 1007,0 5 0,0
12.12.2019 09:00:00 2,0 2,0 4 2 - - 4,0 -
12.12.2019 08:00:00 2,0 2,0 2 1 - - 5 -
12.12.2019 07:00:00 1,1 1,1 4 2 - 1005,7 4,0 -
12.12.2019 06:00:00 1,0 1,0 4 2 E - 4,0 -
12.12.2019 05:00:00 2,0 2,0 8 4 ESE - 6 -
12.12.2019 04:00:00 2,2 1,9 8 4 SSE 1006,2 7 0,0
12.12.2019 03:00:00 3,0 1,0 5 3 ESE - 10 -
12.12.2019 02:00:00 3,0 0,0 5 3 NNE - 10 -
12.12.2019 01:00:00 3,0 0,3 8 4 W 1007,6 10 -
12.12.2019 00:00:00 3,0 0,0 4 2 - - 10 -
11.12.2019 23:00:00 4,0 0,0 8 4 SSW - 10 -
11.12.2019 22:00:00 2,7 -0,2 5 3 NE 1009,0 10 0,0
11.12.2019 21:00:00 4,0 -1,0 2 1 - - 10 -
11.12.2019 20:00:00 5,0 -1,0 5 3 W - 10 -
11.12.2019 19:00:00 4,9 -0,9 5 3 WNW 1011,3 10 -
11.12.2019 18:00:00 5,0 -1,0 8 4 WSW - 10 -
11.12.2019 17:00:00 5,0 -1,0 9 5 SW - 10 -
11.12.2019 16:00:00 5,9 -1,3 8 4 WSW 1013,3 10 0,0
11.12.2019 15:00:00 7,0 -1,0 2 1 - - 10 -
11.12.2019 14:00:00 7,0 -2,0 4 2 - - 10 -
11.12.2019 13:00:00 7,4 -2,0 2 1 - 1016,3 10 -
11.12.2019 12:00:00 7,0 -2,0 2 1 - - 10 -
11.12.2019 11:00:00 6,0 -2,0 5 3 N - 10 -
11.12.2019 10:00:00 4,9 -2,4 8 4 NNE 1019,0 10 0,0
11.12.2019 09:00:00 1,0 -2,0 9 5 N - 10 -
11.12.2019 08:00:00 -3,0 -5,0 8 4 N - 10 -
11.12.2019 07:00:00 -1,7 -5,1 9 5 N 1019,1 10 -
11.12.2019 06:00:00 -2,0 -5,0 13 7 N - 10 -
11.12.2019 05:00:00 -2,0 -6,0 8 4 NNE - 10 -
11.12.2019 04:00:00 -1,9 -5,1 11 6 NNE 1020,6 10 0,0
11.12.2019 03:00:00 -3,0 -6,0 8 4 N - 10 -
11.12.2019 02:00:00 -2,0 -6,0 13 7 N - 10 -
11.12.2019 01:00:00 -1,5 -5,5 5 3 N 1022,4 10 -
11.12.2019 00:00:00 1,0 -5,0 5 3 N - 10 -
10.12.2019 23:00:00 1,0 -6,0 11 6 NNE - 10 -
10.12.2019 22:00:00 -1,7 -6,4 11 6 N 1021,7 10 0,0
10.12.2019 21:00:00 -1,0 -8,0 15 8 NNE - 10 -
10.12.2019 20:00:00 1,0 -8,0 15 8 NNE - 10 -
10.12.2019 19:00:00 3,9 -9,3 8 4 NNE 1020,1 10 -
10.12.2019 18:00:00 9,0 -11,0 4 2 - - 10 -
10.12.2019 17:00:00 12,0 -13,0 5 3 WNW - 10 -
10.12.2019 16:00:00 11,9 -11,7 18 10 NNE 1018,7 10 0,0
10.12.2019 15:00:00 13,0 -12,0 15 8 N - 10 -
10.12.2019 14:00:00 13,0 -12,0 24 13 NE - 10 -
10.12.2019 13:00:00 12,6 -11,1 39 21 NE 1018,5 10 -

tt = temperature
td = dewpoint
ff = wind speed
dd = wind direction
ppp = reduced air pressure
vv = visibility
rr = precipitation

Next stations